Time,TemperatureF,DewpointF,PressureIn,WindDirection,WindDirectionDegrees,WindSpeedMPH,WindSpeedGustMPH,Humidity,HourlyPrecipIn,Conditions,Clouds,dailyrainin,SolarRadiationWatts/m^2,SoftwareType,DateUTC
2013-08-09 00:00:00,72.1,70.9,29.92,WSW,246,1.0,2.0,96,0.00,,---,0.00,0.00,VWS V14.01,2013-08-09 04:00:00,
2013-08-09 00:01:00,72.1,70.9,29.92,WSW,246,0.0,2.0,96,0.00,,---,0.00,0.00,VWS V14.01,2013-08-09 04:01:00,
2013-08-09 00:04:00,72.1,70.9,29.92,WSW,246,0.0,2.0,96,0.00,,---,0.00,0.00,VWS V14.01,2013-08-09 04:04:00,
2013-08-09 00:09:00,72.2,70.7,29.92,WSW,246,0.0,0.0,95,0.00,,---,0.00,0.00,VWS V14.01,2013-08-09 04:09:00,
2013-08-09 00:10:00,72.2,70.4,29.92,WSW,242,0.0,2.0,94,0.00,,---,0.00,0.00,VWS V14.01,2013-08-09 04:10:00,
2013-08-09 00:14:00,72.2,70.7,29.92,WSW,237,0.0,2.0,95,0.00,,---,0.00,0.00,VWS V14.01,2013-08-09 04:14:00,
2013-08-09 00:19:00,72.2,70.4,29.92,WSW,242,0.0,0.0,94,0.00,,---,0.00,0.00,VWS V14.01,2013-08-09 04:19:00,
2013-08-09 00:20:00,72.2,70.4,29.92,SSE,147,0.0,4.0,94,0.00,,---,0.00,0.00,VWS V14.01,2013-08-09 04:20:00,
2013-08-09 00:24:00,72.2,70.4,29.92,SSE,147,0.0,4.0,94,0.00,,---,0.00,0.00,VWS V14.01,2013-08-09 04:24:00,
2013-08-09 00:29:00,72.2,70.4,29.92,SSE,147,0.0,1.0,94,0.00,,---,0.00,0.00,VWS V14.01,2013-08-09 04:29:00,
2013-08-09 00:30:00,72.1,70.3,29.92,SSE,147,0.0,1.0,94,0.00,,---,0.00,0.00,VWS V14.01,2013-08-09 04:30:00,
2013-08-09 00:34:00,72.2,70.4,29.92,SSE,147,0.0,1.0,94,0.00,,---,0.00,0.00,VWS V14.01,2013-08-09 04:34:00,
2013-08-09 00:39:00,72.1,70.3,29.92,SSE,147,0.0,0.0,94,0.00,,---,0.00,0.00,VWS V14.01,2013-08-09 04:39:00,
2013-08-09 00:40:00,72.1,70.3,29.92,SSE,147,0.0,1.0,94,0.00,,---,0.00,0.00,VWS V14.01,2013-08-09 04:40:00,
2013-08-09 00:44:00,72.1,70.3,29.92,SSE,147,0.0,0.0,94,0.00,,---,0.00,0.00,VWS V14.01,2013-08-09 04:44:00,
2013-08-09 00:49:00,72.1,70.3,29.92,South,169,0.0,1.0,94,0.00,,---,0.00,0.00,VWS V14.01,2013-08-09 04:49:00,
2013-08-09 00:50:00,72.1,70.0,29.92,South,173,0.0,3.0,93,0.00,,---,0.00,0.00,VWS V14.01,2013-08-09 04:50:00,
2013-08-09 00:55:00,72.1,70.3,29.92,South,170,0.0,1.0,94,0.00,,---,0.00,0.00,VWS V14.01,2013-08-09 04:55:00,
2013-08-09 01:00:00,72.2,70.1,29.92,South,175,1.0,2.0,93,0.00,,---,0.00,0.00,VWS V14.01,2013-08-09 05:00:00,
2013-08-09 01:05:00,72.2,70.1,29.92,South,175,0.0,2.0,93,0.00,,---,0.00,0.00,VWS V14.01,2013-08-09 05:05:00,
2013-08-09 01:10:00,72.3,69.8,29.92,South,178,0.0,1.0,92,0.00,,---,0.00,0.00,VWS V14.01,2013-08-09 05:10:00,
2013-08-09 01:15:00,72.4,69.9,29.92,South,178,1.0,2.0,92,0.00,,---,0.00,0.00,VWS V14.01,2013-08-09 05:15:00,
2013-08-09 01:20:00,72.5,70.1,29.92,West,260,0.0,1.0,92,0.00,,---,0.00,0.00,VWS V14.01,2013-08-09 05:20:00,
2013-08-09 01:25:00,72.5,69.7,29.91,West,260,0.0,1.0,91,0.00,,---,0.00,0.00,VWS V14.01,2013-08-09 05:25:00,
2013-08-09 01:30:00,72.5,69.7,29.91,West,259,0.0,0.0,91,0.00,,---,0.00,0.00,VWS V14.01,2013-08-09 05:30:00,
2013-08-09 01:35:00,72.5,69.7,29.91,West,259,0.0,0.0,91,0.00,,---,0.00,0.00,VWS V14.01,2013-08-09 05:35:00,
2013-08-09 01:40:00,72.4,69.6,29.91,WSW,244,0.0,0.0,91,0.00,,---,0.00,0.00,VWS V14.01,2013-08-09 05:40:00,
2013-08-09 01:46:00,72.4,69.6,29.91,WSW,244,0.0,0.0,91,0.00,,---,0.00,0.00,VWS V14.01,2013-08-09 05:46:00,
2013-08-09 01:50:00,72.1,69.7,29.91,WSW,250,0.0,1.0,92,0.00,,---,0.00,0.00,VWS V14.01,2013-08-09 05:50:00,
2013-08-09 01:51:00,72.3,69.5,29.91,WSW,250,0.0,1.0,91,0.00,,---,0.00,0.00,VWS V14.01,2013-08-09 05:51:00,
2013-08-09 01:56:00,72.2,69.8,29.91,WSW,250,0.0,1.0,92,0.00,,---,0.00,0.00,VWS V14.01,2013-08-09 05:56:00,
2013-08-09 02:00:00,72.0,69.6,29.91,WSW,250,0.0,1.0,92,0.00,,---,0.00,0.00,VWS V14.01,2013-08-09 06:00:00,
2013-08-09 02:01:00,72.1,69.7,29.91,WSW,250,0.0,0.0,92,0.00,,---,0.00,0.00,VWS V14.01,2013-08-09 06:01:00,
2013-08-09 02:06:00,72.0,69.6,29.92,WSW,250,0.0,1.0,92,0.00,,---,0.00,0.00,VWS V14.01,2013-08-09 06:06:00,
2013-08-09 02:10:00,71.9,69.1,29.91,WSW,250,0.0,1.0,91,0.00,,---,0.00,0.00,VWS V14.01,2013-08-09 06:10:00,
2013-08-09 02:11:00,72.0,69.6,29.91,WSW,250,0.0,1.0,92,0.00,,---,0.00,0.00,VWS V14.01,2013-08-09 06:11:00,
2013-08-09 02:16:00,71.9,69.4,29.91,WSW,250,0.0,1.0,92,0.00,,---,0.00,0.00,VWS V14.01,2013-08-09 06:16:00,
2013-08-09 02:20:00,71.7,68.9,29.92,WSW,250,0.0,1.0,91,0.00,,---,0.00,0.00,VWS V14.01,2013-08-09 06:20:00,
2013-08-09 02:21:00,71.8,69.0,29.91,WSW,250,0.0,1.0,91,0.00,,---,0.00,0.00,VWS V14.01,2013-08-09 06:21:00,
2013-08-09 02:26:00,71.8,69.0,29.91,WSW,250,0.0,1.0,91,0.00,,---,0.00,0.00,VWS V14.01,2013-08-09 06:26:00,
2013-08-09 02:30:00,71.6,68.8,29.91,WSW,250,0.0,1.0,91,0.00,,---,0.00,0.00,VWS V14.01,2013-08-09 06:30:00,
2013-08-09 02:31:00,71.7,68.9,29.91,WSW,250,0.0,0.0,91,0.00,,---,0.00,0.00,VWS V14.01,2013-08-09 06:31:00,
2013-08-09 02:37:00,71.7,68.9,29.91,WSW,250,1.0,1.0,91,0.00,,---,0.00,0.00,VWS V14.01,2013-08-09 06:37:00,
2013-08-09 02:40:00,71.7,68.9,29.91,WSW,250,0.0,1.0,91,0.00,,---,0.00,0.00,VWS V14.01,2013-08-09 06:40:00,
2013-08-09 02:42:00,71.6,68.8,29.91,WSW,250,0.0,0.0,91,0.00,,---,0.00,0.00,VWS V14.01,2013-08-09 06:42:00,
2013-08-09 02:47:00,71.7,68.9,29.91,WSW,250,0.0,1.0,91,0.00,,---,0.00,0.00,VWS V14.01,2013-08-09 06:47:00,
2013-08-09 02:50:00,71.6,68.8,29.91,WSW,250,0.0,1.0,91,0.00,,---,0.00,0.00,VWS V14.01,2013-08-09 06:50:00,
2013-08-09 02:52:00,71.7,68.9,29.91,WSW,250,0.0,0.0,91,0.00,,---,0.00,0.00,VWS V14.01,2013-08-09 06:52:00,
2013-08-09 02:57:00,71.7,68.9,29.91,WSW,250,0.0,1.0,91,0.00,,---,0.00,0.00,VWS V14.01,2013-08-09 06:57:00,
2013-08-09 03:00:00,71.5,69.1,29.91,WSW,250,0.0,1.0,92,0.00,,---,0.00,0.00,VWS V14.01,2013-08-09 07:00:00,
2013-08-09 03:02:00,71.6,69.2,29.91,WSW,250,0.0,0.0,92,0.00,,---,0.00,0.00,VWS V14.01,2013-08-09 07:02:00,
2013-08-09 03:07:00,71.5,69.1,29.91,WSW,250,0.0,1.0,92,0.00,,---,0.00,0.00,VWS V14.01,2013-08-09 07:07:00,
2013-08-09 03:10:00,71.3,68.9,29.91,WSW,250,0.0,0.0,92,0.00,,---,0.00,0.00,VWS V14.01,2013-08-09 07:10:00,
2013-08-09 03:12:00,71.5,69.1,29.91,WSW,250,0.0,0.0,92,0.00,,---,0.00,0.00,VWS V14.01,2013-08-09 07:12:00,
2013-08-09 03:17:00,71.3,68.9,29.91,WSW,250,0.0,0.0,92,0.00,,---,0.00,0.00,VWS V14.01,2013-08-09 07:17:00,
2013-08-09 03:20:00,70.9,68.5,29.91,WSW,250,0.0,0.0,92,0.00,,---,0.00,0.00,VWS V14.01,2013-08-09 07:20:00,
2013-08-09 03:22:00,71.1,68.7,29.91,WSW,250,0.0,0.0,92,0.00,,---,0.00,0.00,VWS V14.01,2013-08-09 07:22:00,
2013-08-09 03:28:00,70.9,68.5,29.91,WSW,250,0.0,0.0,92,0.00,,---,0.00,0.00,VWS V14.01,2013-08-09 07:28:00,
2013-08-09 03:30:00,70.5,68.4,29.91,WSW,250,0.0,0.0,93,0.00,,---,0.00,0.00,VWS V14.01,2013-08-09 07:30:00,
2013-08-09 03:33:00,70.7,68.3,29.91,WSW,250,0.0,0.0,92,0.00,,---,0.00,0.00,VWS V14.01,2013-08-09 07:33:00,
2013-08-09 03:38:00,70.5,68.4,29.91,WSW,250,0.0,0.0,93,0.00,,---,0.00,0.00,VWS V14.01,2013-08-09 07:38:00,
2013-08-09 03:40:00,70.1,68.0,29.91,WSW,250,0.0,0.0,93,0.00,,---,0.00,0.00,VWS V14.01,2013-08-09 07:40:00,
2013-08-09 03:43:00,70.3,68.2,29.91,WSW,250,0.0,0.0,93,0.00,,---,0.00,0.00,VWS V14.01,2013-08-09 07:43:00,
2013-08-09 03:48:00,70.1,68.0,29.91,WSW,250,0.0,0.0,93,0.00,,---,0.00,0.00,VWS V14.01,2013-08-09 07:48:00,
2013-08-09 03:50:00,69.8,67.7,29.91,WSW,250,0.0,0.0,93,0.00,,---,0.00,0.00,VWS V14.01,2013-08-09 07:50:00,
2013-08-09 03:53:00,70.0,68.2,29.91,WSW,250,0.0,0.0,94,0.00,,---,0.00,0.00,VWS V14.01,2013-08-09 07:53:00,
2013-08-09 03:58:00,69.8,67.7,29.91,WSW,250,0.0,0.0,93,0.00,,---,0.00,0.00,VWS V14.01,2013-08-09 07:58:00,
2013-08-09 04:00:00,69.4,67.6,29.92,WSW,250,0.0,0.0,94,0.00,,---,0.00,0.00,VWS V14.01,2013-08-09 08:00:00,
2013-08-09 04:03:00,69.5,67.7,29.92,WSW,250,0.0,0.0,94,0.00,,---,0.00,0.00,VWS V14.01,2013-08-09 08:03:00,
2013-08-09 04:08:00,69.4,67.6,29.92,WSW,250,0.0,0.0,94,0.00,,---,0.00,0.00,VWS V14.01,2013-08-09 08:08:00,
2013-08-09 04:10:00,69.2,67.4,29.92,WSW,250,0.0,0.0,94,0.00,,---,0.00,0.00,VWS V14.01,2013-08-09 08:10:00,
2013-08-09 04:14:00,69.3,67.5,29.92,WSW,250,0.0,0.0,94,0.00,,---,0.00,0.00,VWS V14.01,2013-08-09 08:14:00,
2013-08-09 04:19:00,69.2,67.7,29.92,WSW,250,0.0,0.0,95,0.00,,---,0.00,0.00,VWS V14.01,2013-08-09 08:19:00,
2013-08-09 04:20:00,69.1,67.6,29.92,WSW,250,0.0,0.0,95,0.00,,---,0.00,0.00,VWS V14.01,2013-08-09 08:20:00,
2013-08-09 04:24:00,69.2,67.7,29.92,WSW,250,0.0,0.0,95,0.00,,---,0.00,0.00,VWS V14.01,2013-08-09 08:24:00,
2013-08-09 04:29:00,69.1,67.6,29.92,WSW,250,0.0,0.0,95,0.00,,---,0.00,0.00,VWS V14.01,2013-08-09 08:29:00,
2013-08-09 04:30:00,68.9,67.4,29.92,WSW,250,0.0,0.0,95,0.00,,---,0.00,0.00,VWS V14.01,2013-08-09 08:30:00,
2013-08-09 04:34:00,69.0,67.5,29.92,WSW,250,0.0,0.0,95,0.00,,---,0.00,0.00,VWS V14.01,2013-08-09 08:34:00,
2013-08-09 04:39:00,68.8,67.3,29.92,WSW,250,0.0,0.0,95,0.00,,---,0.00,0.00,VWS V14.01,2013-08-09 08:39:00,
2013-08-09 04:40:00,68.8,67.3,29.93,WSW,250,0.0,0.0,95,0.00,,---,0.00,0.00,VWS V14.01,2013-08-09 08:40:00,
2013-08-09 04:44:00,68.8,67.3,29.92,WSW,250,0.0,0.0,95,0.00,,---,0.00,0.00,VWS V14.01,2013-08-09 08:44:00,
2013-08-09 04:49:00,68.8,67.6,29.93,WSW,250,0.0,0.0,96,0.00,,---,0.00,0.00,VWS V14.01,2013-08-09 08:49:00,
2013-08-09 04:50:00,68.8,67.3,29.93,WSW,250,0.0,0.0,95,0.00,,---,0.00,0.00,VWS V14.01,2013-08-09 08:50:00,
2013-08-09 04:54:00,68.8,67.6,29.93,WSW,250,0.0,0.0,96,0.00,,---,0.00,0.00,VWS V14.01,2013-08-09 08:54:00,
2013-08-09 05:00:00,68.8,67.3,29.93,WSW,250,0.0,0.0,95,0.00,,---,0.00,0.00,VWS V14.01,2013-08-09 09:00:00,
2013-08-09 05:05:00,68.7,67.2,29.93,WSW,250,0.0,0.0,95,0.00,,---,0.00,0.00,VWS V14.01,2013-08-09 09:05:00,
2013-08-09 05:10:00,68.6,67.1,29.93,WSW,250,0.0,0.0,95,0.00,,---,0.00,0.00,VWS V14.01,2013-08-09 09:10:00,
2013-08-09 05:15:00,68.7,67.5,29.93,WSW,250,0.0,0.0,96,0.00,,---,0.00,0.00,VWS V14.01,2013-08-09 09:15:00,
2013-08-09 05:20:00,68.7,67.5,29.93,WSW,250,0.0,0.0,96,0.00,,---,0.00,0.00,VWS V14.01,2013-08-09 09:20:00,
2013-08-09 05:25:00,68.7,67.5,29.93,WSW,250,0.0,0.0,96,0.00,,---,0.00,0.00,VWS V14.01,2013-08-09 09:25:00,
2013-08-09 05:30:00,68.7,67.5,29.94,WSW,250,0.0,0.0,96,0.00,,---,0.00,0.00,VWS V14.01,2013-08-09 09:30:00,
2013-08-09 05:35:00,68.8,67.6,29.93,WSW,250,0.0,0.0,96,0.00,,---,0.00,0.00,VWS V14.01,2013-08-09 09:35:00,
2013-08-09 05:40:00,68.7,67.5,29.93,WSW,250,0.0,0.0,96,0.00,,---,0.00,0.00,VWS V14.01,2013-08-09 09:40:00,
2013-08-09 05:45:00,68.7,67.5,29.94,WSW,250,0.0,0.0,96,0.00,,---,0.00,0.00,VWS V14.01,2013-08-09 09:45:00,
2013-08-09 05:50:00,68.7,67.5,29.94,WSW,250,0.0,0.0,96,0.00,,---,0.00,0.00,VWS V14.01,2013-08-09 09:50:00,
2013-08-09 05:51:00,68.7,67.5,29.94,WSW,250,0.0,0.0,96,0.00,,---,0.00,0.00,VWS V14.01,2013-08-09 09:51:00,
2013-08-09 05:56:00,68.7,67.5,29.94,WSW,250,0.0,0.0,96,0.00,,---,0.00,0.00,VWS V14.01,2013-08-09 09:56:00,
2013-08-09 06:00:00,68.6,67.4,29.94,WSW,250,0.0,0.0,96,0.00,,---,0.00,0.00,VWS V14.01,2013-08-09 10:00:00,
2013-08-09 06:01:00,68.6,67.4,29.94,WSW,250,0.0,0.0,96,0.00,,---,0.00,0.00,VWS V14.01,2013-08-09 10:01:00,
2013-08-09 06:06:00,68.6,67.4,29.94,WSW,250,0.0,0.0,96,0.00,,---,0.00,0.00,VWS V14.01,2013-08-09 10:06:00,
2013-08-09 06:10:00,68.6,67.4,29.94,WSW,250,0.0,0.0,96,0.00,,---,0.00,0.00,VWS V14.01,2013-08-09 10:10:00,
2013-08-09 06:11:00,68.6,67.4,29.94,WSW,250,0.0,0.0,96,0.00,,---,0.00,0.00,VWS V14.01,2013-08-09 10:11:00,
2013-08-09 06:16:00,68.6,67.4,29.94,WSW,250,0.0,0.0,96,0.00,,---,0.00,0.00,VWS V14.01,2013-08-09 10:16:00,
2013-08-09 06:20:00,68.5,67.3,29.95,WSW,250,0.0,0.0,96,0.00,,---,0.00,0.00,VWS V14.01,2013-08-09 10:20:00,
2013-08-09 06:21:00,68.5,67.3,29.94,WSW,250,0.0,0.0,96,0.00,,---,0.00,0.00,VWS V14.01,2013-08-09 10:21:00,
2013-08-09 06:26:00,68.5,67.3,29.95,WSW,250,0.0,0.0,96,0.00,,---,0.00,0.00,VWS V14.01,2013-08-09 10:26:00,
2013-08-09 06:30:00,68.5,67.6,29.95,WSW,250,0.0,0.0,97,0.00,,---,0.00,0.00,VWS V14.01,2013-08-09 10:30:00,
2013-08-09 06:31:00,68.5,67.3,29.95,WSW,250,0.0,0.0,96,0.00,,---,0.00,0.00,VWS V14.01,2013-08-09 10:31:00,
2013-08-09 06:36:00,68.5,67.3,29.95,WSW,250,0.0,0.0,96,0.00,,---,0.00,0.00,VWS V14.01,2013-08-09 10:36:00,
2013-08-09 06:40:00,68.5,67.6,29.95,WSW,250,0.0,0.0,97,0.00,,---,0.00,5.00,VWS V14.01,2013-08-09 10:40:00,
2013-08-09 06:41:00,68.5,67.6,29.95,WSW,250,0.0,0.0,97,0.00,,---,0.00,0.00,VWS V14.01,2013-08-09 10:41:00,
2013-08-09 06:47:00,68.5,67.6,29.95,WSW,250,0.0,0.0,97,0.00,,---,0.00,5.00,VWS V14.01,2013-08-09 10:47:00,
2013-08-09 06:50:00,68.5,67.6,29.95,WSW,250,0.0,0.0,97,0.00,,---,0.00,14.00,VWS V14.01,2013-08-09 10:50:00,
2013-08-09 06:52:00,68.4,67.5,29.95,WSW,250,0.0,0.0,97,0.00,,---,0.00,7.00,VWS V14.01,2013-08-09 10:52:00,
2013-08-09 06:57:00,68.5,67.6,29.95,WSW,250,0.0,0.0,97,0.00,,---,0.00,12.00,VWS V14.01,2013-08-09 10:57:00,
2013-08-09 07:00:00,68.6,67.7,29.95,WSW,250,0.0,0.0,97,0.00,,---,0.00,19.00,VWS V14.01,2013-08-09 11:00:00,
2013-08-09 07:02:00,68.5,67.6,29.95,WSW,250,0.0,0.0,97,0.00,,---,0.00,16.00,VWS V14.01,2013-08-09 11:02:00,
2013-08-09 07:07:00,68.5,67.6,29.95,WSW,250,0.0,0.0,97,0.00,,---,0.00,18.00,VWS V14.01,2013-08-09 11:07:00,
2013-08-09 07:10:00,68.7,67.8,29.95,WSW,250,0.0,0.0,97,0.00,,---,0.00,35.00,VWS V14.01,2013-08-09 11:10:00,
2013-08-09 07:12:00,68.6,67.7,29.95,WSW,250,0.0,0.0,97,0.00,,---,0.00,23.00,VWS V14.01,2013-08-09 11:12:00,
2013-08-09 07:17:00,68.7,67.8,29.95,WSW,250,0.0,0.0,97,0.00,,---,0.00,32.00,VWS V14.01,2013-08-09 11:17:00,
2013-08-09 07:20:00,69.0,68.1,29.96,WSW,250,0.0,0.0,97,0.00,,---,0.00,46.00,VWS V14.01,2013-08-09 11:20:00,
2013-08-09 07:22:00,68.8,67.9,29.96,WSW,250,0.0,0.0,97,0.00,,---,0.00,42.00,VWS V14.01,2013-08-09 11:22:00,
2013-08-09 07:27:00,69.0,68.1,29.96,WSW,250,0.0,0.0,97,0.00,,---,0.00,46.00,VWS V14.01,2013-08-09 11:27:00,
2013-08-09 07:30:00,69.3,68.7,29.96,WSW,250,0.0,0.0,98,0.00,,---,0.00,69.00,VWS V14.01,2013-08-09 11:30:00,
2013-08-09 07:32:00,69.1,68.5,29.96,WSW,250,0.0,0.0,98,0.00,,---,0.00,47.00,VWS V14.01,2013-08-09 11:32:00,
2013-08-09 07:38:00,69.3,68.7,29.96,WSW,245,0.0,0.0,98,0.00,,---,0.00,69.00,VWS V14.01,2013-08-09 11:38:00,
2013-08-09 07:40:00,69.5,68.6,29.96,WSW,250,0.0,0.0,97,0.00,,---,0.00,53.00,VWS V14.01,2013-08-09 11:40:00,
2013-08-09 07:43:00,69.4,68.5,29.96,WSW,245,0.0,0.0,97,0.00,,---,0.00,63.00,VWS V14.01,2013-08-09 11:43:00,
2013-08-09 07:48:00,69.5,68.6,29.96,WSW,250,0.0,0.0,97,0.00,,---,0.00,53.00,VWS V14.01,2013-08-09 11:48:00,
2013-08-09 07:50:00,69.7,68.8,29.96,WSW,250,0.0,0.0,97,0.00,,---,0.00,40.00,VWS V14.01,2013-08-09 11:50:00,
2013-08-09 07:53:00,69.7,68.8,29.96,WSW,250,0.0,0.0,97,0.00,,---,0.00,46.00,VWS V14.01,2013-08-09 11:53:00,
2013-08-09 07:58:00,69.7,68.8,29.96,WSW,250,0.0,0.0,97,0.00,,---,0.00,40.00,VWS V14.01,2013-08-09 11:58:00,
2013-08-09 08:00:00,70.0,69.1,29.96,WSW,250,0.0,0.0,97,0.00,,---,0.00,49.00,VWS V14.01,2013-08-09 12:00:00,
2013-08-09 08:03:00,69.9,69.0,29.96,WSW,250,0.0,0.0,97,0.00,,---,0.00,42.00,VWS V14.01,2013-08-09 12:03:00,
2013-08-09 08:08:00,70.1,69.2,29.96,WSW,250,0.0,0.0,97,0.00,,---,0.00,49.00,VWS V14.01,2013-08-09 12:08:00,
2013-08-09 08:10:00,70.2,69.3,29.96,WSW,250,0.0,0.0,97,0.00,,---,0.00,54.00,VWS V14.01,2013-08-09 12:10:00,
2013-08-09 08:13:00,70.1,69.2,29.96,WSW,250,0.0,0.0,97,0.00,,---,0.00,51.00,VWS V14.01,2013-08-09 12:13:00,
2013-08-09 08:18:00,70.3,69.4,29.96,WSW,250,0.0,0.0,97,0.00,,---,0.00,54.00,VWS V14.01,2013-08-09 12:18:00,
2013-08-09 08:20:00,70.5,69.6,29.96,WSW,245,0.0,0.0,97,0.00,,---,0.00,58.00,VWS V14.01,2013-08-09 12:20:00,
2013-08-09 08:24:00,70.4,69.5,29.96,WSW,250,0.0,0.0,97,0.00,,---,0.00,65.00,VWS V14.01,2013-08-09 12:24:00,
2013-08-09 08:29:00,70.6,69.7,29.96,WSW,250,0.0,0.0,97,0.00,,---,0.00,58.00,VWS V14.01,2013-08-09 12:29:00,
2013-08-09 08:30:00,70.8,69.6,29.97,WSW,250,0.0,0.0,96,0.00,,---,0.00,63.00,VWS V14.01,2013-08-09 12:30:00,
2013-08-09 08:34:00,70.7,69.5,29.97,WSW,250,0.0,0.0,96,0.00,,---,0.00,62.00,VWS V14.01,2013-08-09 12:34:00,
2013-08-09 08:39:00,70.8,69.6,29.97,WSW,250,0.0,0.0,96,0.00,,---,0.00,62.00,VWS V14.01,2013-08-09 12:39:00,
2013-08-09 08:40:00,71.0,69.8,29.97,WSW,250,0.0,0.0,96,0.00,,---,0.00,113.00,VWS V14.01,2013-08-09 12:40:00,
2013-08-09 08:44:00,70.9,69.7,29.97,WSW,250,0.0,0.0,96,0.00,,---,0.00,84.00,VWS V14.01,2013-08-09 12:44:00,
2013-08-09 08:49:00,71.0,69.5,29.97,WSW,250,0.0,0.0,95,0.00,,---,0.00,121.00,VWS V14.01,2013-08-09 12:49:00,
2013-08-09 08:50:00,71.4,69.9,29.97,WSW,250,0.0,1.0,95,0.00,,---,0.00,176.00,VWS V14.01,2013-08-09 12:50:00,
2013-08-09 08:54:00,71.2,69.7,29.97,WSW,250,0.0,1.0,95,0.00,,---,0.00,155.00,VWS V14.01,2013-08-09 12:54:00,
2013-08-09 08:59:00,71.5,70.0,29.97,WSW,250,0.0,0.0,95,0.00,,---,0.00,186.00,VWS V14.01,2013-08-09 12:59:00,
2013-08-09 09:00:00,71.8,70.3,29.97,WSW,250,0.0,1.0,95,0.00,,---,0.00,158.00,VWS V14.01,2013-08-09 13:00:00,
2013-08-09 09:05:00,71.6,69.8,29.97,WSW,250,0.0,1.0,94,0.00,,---,0.00,169.00,VWS V14.01,2013-08-09 13:05:00,
2013-08-09 09:10:00,71.8,70.0,29.98,WSW,250,0.0,1.0,94,0.00,,---,0.00,156.00,VWS V14.01,2013-08-09 13:10:00,
2013-08-09 09:15:00,72.0,70.2,29.97,WSW,250,0.0,1.0,94,0.00,,---,0.00,178.00,VWS V14.01,2013-08-09 13:15:00,
2013-08-09 09:20:00,72.2,70.4,29.98,WSW,250,0.0,1.0,94,0.00,,---,0.00,179.00,VWS V14.01,2013-08-09 13:20:00,
2013-08-09 09:25:00,72.6,70.5,29.98,WSW,250,0.0,1.0,93,0.00,,---,0.00,137.00,VWS V14.01,2013-08-09 13:25:00,
2013-08-09 09:30:00,72.9,70.8,29.98,WSW,250,0.0,0.0,93,0.00,,---,0.00,132.00,VWS V14.01,2013-08-09 13:30:00,
2013-08-09 09:35:00,73.0,70.5,29.98,WSW,250,0.0,1.0,92,0.00,,---,0.00,132.00,VWS V14.01,2013-08-09 13:35:00,
2013-08-09 09:40:00,73.1,70.6,29.98,WSW,250,0.0,1.0,92,0.00,,---,0.00,158.00,VWS V14.01,2013-08-09 13:40:00,
2013-08-09 09:45:00,73.2,70.7,29.98,WSW,250,0.0,1.0,92,0.00,,---,0.00,167.00,VWS V14.01,2013-08-09 13:45:00,
2013-08-09 09:50:00,73.5,71.0,29.98,WSW,250,1.0,1.0,92,0.00,,---,0.00,218.00,VWS V14.01,2013-08-09 13:50:00,
2013-08-09 09:51:00,73.3,70.5,29.98,WSW,250,0.0,1.0,91,0.00,,---,0.00,163.00,VWS V14.01,2013-08-09 13:51:00,
2013-08-09 09:56:00,73.4,70.9,29.98,WSW,250,0.0,1.0,92,0.00,,---,0.00,195.00,VWS V14.01,2013-08-09 13:56:00,
2013-08-09 10:00:00,74.1,71.6,29.98,WSW,250,0.0,1.0,92,0.00,,---,0.00,246.00,VWS V14.01,2013-08-09 14:00:00,
2013-08-09 10:01:00,73.6,71.1,29.98,WSW,250,0.0,1.0,92,0.00,,---,0.00,229.00,VWS V14.01,2013-08-09 14:01:00,
2013-08-09 10:06:00,73.9,71.4,29.98,WSW,250,1.0,1.0,92,0.00,,---,0.00,243.00,VWS V14.01,2013-08-09 14:06:00,
2013-08-09 10:10:00,74.5,71.4,29.98,WSW,250,0.0,1.0,90,0.00,,---,0.00,243.00,VWS V14.01,2013-08-09 14:10:00,
2013-08-09 10:11:00,74.2,71.4,29.98,WSW,250,0.0,1.0,91,0.00,,---,0.00,257.00,VWS V14.01,2013-08-09 14:11:00,
2013-08-09 10:16:00,74.5,71.4,29.98,WSW,250,0.0,1.0,90,0.00,,---,0.00,244.00,VWS V14.01,2013-08-09 14:16:00,
2013-08-09 10:20:00,74.8,71.7,29.97,WSW,250,0.0,3.0,90,0.00,,---,0.00,257.00,VWS V14.01,2013-08-09 14:20:00,
2013-08-09 10:21:00,74.7,71.6,29.98,WSW,250,0.0,3.0,90,0.00,,---,0.00,239.00,VWS V14.01,2013-08-09 14:21:00,
2013-08-09 10:26:00,74.8,71.3,29.97,WSW,250,0.0,3.0,89,0.00,,---,0.00,255.00,VWS V14.01,2013-08-09 14:26:00,
2013-08-09 10:30:00,75.1,71.6,29.98,WSW,250,0.0,2.0,89,0.00,,---,0.00,209.00,VWS V14.01,2013-08-09 14:30:00,
2013-08-09 10:31:00,75.0,71.9,29.97,WSW,250,1.0,2.0,90,0.00,,---,0.00,269.00,VWS V14.01,2013-08-09 14:31:00,
2013-08-09 10:36:00,75.2,72.1,29.98,WSW,250,0.0,2.0,90,0.00,,---,0.00,229.00,VWS V14.01,2013-08-09 14:36:00,
2013-08-09 10:40:00,75.2,71.7,29.98,WSW,250,0.0,1.0,89,0.00,,---,0.00,79.00,VWS V14.01,2013-08-09 14:40:00,
2013-08-09 10:42:00,75.1,71.6,29.98,WSW,250,0.0,1.0,89,0.00,,---,0.00,200.00,VWS V14.01,2013-08-09 14:42:00,
2013-08-09 10:47:00,75.2,72.1,29.98,WSW,250,0.0,1.0,90,0.00,,---,0.00,105.00,VWS V14.01,2013-08-09 14:47:00,
2013-08-09 10:50:00,75.1,71.6,29.98,WSW,250,0.0,1.0,89,0.00,,---,0.00,202.00,VWS V14.01,2013-08-09 14:50:00,
2013-08-09 10:52:00,75.1,71.6,29.98,WSW,250,0.0,1.0,89,0.00,,---,0.00,155.00,VWS V14.01,2013-08-09 14:52:00,
2013-08-09 10:57:00,75.1,71.6,29.98,WSW,250,0.0,1.0,89,0.00,,---,0.00,169.00,VWS V14.01,2013-08-09 14:57:00,
2013-08-09 11:00:00,75.4,71.9,29.98,WSW,250,0.0,2.0,89,0.00,,---,0.00,237.00,VWS V14.01,2013-08-09 15:00:00,
2013-08-09 11:02:00,75.2,72.1,29.98,WSW,250,0.0,2.0,90,0.00,,---,0.00,311.00,VWS V14.01,2013-08-09 15:02:00,
2013-08-09 11:07:00,75.4,71.9,29.98,WSW,250,0.0,2.0,89,0.00,,---,0.00,264.00,VWS V14.01,2013-08-09 15:07:00,
2013-08-09 11:10:00,75.8,72.3,29.98,WSW,246,0.0,1.0,89,0.00,,---,0.00,255.00,VWS V14.01,2013-08-09 15:10:00,
2013-08-09 11:12:00,75.6,72.1,29.99,WSW,250,0.0,1.0,89,0.00,,---,0.00,174.00,VWS V14.01,2013-08-09 15:12:00,
2013-08-09 11:17:00,75.8,72.3,29.98,WSW,250,0.0,1.0,89,0.00,,---,0.00,253.00,VWS V14.01,2013-08-09 15:17:00,
2013-08-09 11:20:00,76.2,72.1,29.99,WSW,251,0.0,2.0,87,0.00,,---,0.00,304.00,VWS V14.01,2013-08-09 15:20:00,
2013-08-09 11:23:00,76.0,72.2,29.98,WSW,250,0.0,2.0,88,0.00,,---,0.00,332.00,VWS V14.01,2013-08-09 15:23:00,
2013-08-09 11:28:00,76.2,72.1,29.99,WSW,251,0.0,2.0,87,0.00,,---,0.00,304.00,VWS V14.01,2013-08-09 15:28:00,
2013-08-09 11:30:00,77.1,72.9,29.98,West,268,3.0,6.0,87,0.00,,---,0.00,759.00,VWS V14.01,2013-08-09 15:30:00,
2013-08-09 11:33:00,76.6,72.8,29.99,WSW,252,1.0,3.0,88,0.00,,---,0.00,563.00,VWS V14.01,2013-08-09 15:33:00,
2013-08-09 11:38:00,77.1,72.9,29.98,West,263,2.0,6.0,87,0.00,,---,0.00,759.00,VWS V14.01,2013-08-09 15:38:00,
2013-08-09 11:40:00,78.4,73.2,29.98,SW,215,2.0,6.0,84,0.00,,---,0.00,392.00,VWS V14.01,2013-08-09 15:40:00,
2013-08-09 11:43:00,77.8,72.9,29.98,WNW,289,0.0,5.0,85,0.00,,---,0.00,738.00,VWS V14.01,2013-08-09 15:43:00,
2013-08-09 11:48:00,78.4,73.2,29.98,SW,215,2.0,6.0,84,0.00,,---,0.00,392.00,VWS V14.01,2013-08-09 15:48:00,
2013-08-09 11:50:00,79.0,73.4,29.98,SW,229,4.0,8.0,83,0.00,,---,0.00,621.00,VWS V14.01,2013-08-09 15:50:00,
2013-08-09 11:53:00,78.6,73.0,29.98,WSW,240,4.0,7.0,83,0.00,,---,0.00,708.00,VWS V14.01,2013-08-09 15:53:00,
2013-08-09 11:58:00,79.0,73.4,29.98,SW,229,4.0,8.0,83,0.00,,---,0.00,621.00,VWS V14.01,2013-08-09 15:58:00,
2013-08-09 12:00:00,79.6,74.0,29.98,SW,228,0.0,13.0,83,0.00,,---,0.00,578.00,VWS V14.01,2013-08-09 16:00:00,
2013-08-09 12:03:00,79.5,73.5,29.97,West,268,3.0,7.0,82,0.00,,---,0.00,942.00,VWS V14.01,2013-08-09 16:03:00,
2013-08-09 12:08:00,79.6,74.0,29.98,SW,234,1.0,1.0,83,0.00,,---,0.00,406.00,VWS V14.01,2013-08-09 16:08:00,
2013-08-09 12:10:00,79.4,73.4,29.97,WSW,251,1.0,10.0,82,0.00,,---,0.00,399.00,VWS V14.01,2013-08-09 16:10:00,
2013-08-09 12:13:00,79.6,73.3,29.98,NW,311,4.0,10.0,81,0.00,,---,0.00,341.00,VWS V14.01,2013-08-09 16:13:00,
2013-08-09 12:19:00,79.4,73.8,29.97,WNW,294,5.0,5.0,83,0.00,,---,0.00,1013.00,VWS V14.01,2013-08-09 16:19:00,
2013-08-09 12:20:00,80.5,74.9,29.97,West,271,0.0,9.0,83,0.00,,---,0.00,1078.00,VWS V14.01,2013-08-09 16:20:00,
2013-08-09 12:24:00,80.0,74.4,29.97,WNW,302,0.0,7.0,83,0.00,,---,0.00,499.00,VWS V14.01,2013-08-09 16:24:00,
2013-08-09 12:29:00,80.5,74.9,29.97,WSW,257,3.0,3.0,83,0.00,,---,0.00,1078.00,VWS V14.01,2013-08-09 16:29:00,
2013-08-09 12:30:00,80.4,73.7,29.97,SW,234,1.0,6.0,80,0.00,,---,0.00,364.00,VWS V14.01,2013-08-09 16:30:00,
2013-08-09 12:34:00,80.8,74.1,29.97,WSW,247,3.0,6.0,80,0.00,,---,0.00,1078.00,VWS V14.01,2013-08-09 16:34:00,
2013-08-09 12:39:00,80.4,73.7,29.96,WNW,292,3.0,6.0,80,0.00,,---,0.00,364.00,VWS V14.01,2013-08-09 16:39:00,
2013-08-09 12:40:00,81.3,74.5,29.96,South,171,2.0,8.0,80,0.00,,---,0.00,1079.00,VWS V14.01,2013-08-09 16:40:00,
2013-08-09 12:44:00,80.8,74.1,29.96,WNW,302,6.0,8.0,80,0.00,,---,0.00,969.00,VWS V14.01,2013-08-09 16:44:00,
2013-08-09 12:49:00,81.3,74.5,29.97,WSW,257,4.0,10.0,80,0.00,,---,0.00,1079.00,VWS V14.01,2013-08-09 16:49:00,
2013-08-09 12:50:00,81.6,74.1,29.96,SSW,205,4.0,10.0,78,0.00,,---,0.00,956.00,VWS V14.01,2013-08-09 16:50:00,
2013-08-09 12:54:00,81.4,74.3,29.96,WSW,244,2.0,10.0,79,0.00,,---,0.00,907.00,VWS V14.01,2013-08-09 16:54:00,
2013-08-09 12:59:00,81.6,74.1,29.95,SW,229,5.0,11.0,78,0.00,,---,0.00,965.00,VWS V14.01,2013-08-09 16:59:00,
2013-08-09 13:00:00,82.0,74.8,29.96,West,259,1.0,11.0,79,0.00,,---,0.00,942.00,VWS V14.01,2013-08-09 17:00:00,
2013-08-09 13:04:00,81.8,74.3,29.95,NW,306,1.0,11.0,78,0.00,,---,0.00,1000.00,VWS V14.01,2013-08-09 17:04:00,
2013-08-09 13:09:00,82.1,74.9,29.95,WNW,292,3.0,3.0,79,0.00,,---,0.00,960.00,VWS V14.01,2013-08-09 17:09:00,
2013-08-09 13:10:00,82.5,74.2,29.96,West,271,2.0,7.0,76,0.00,,---,0.00,299.00,VWS V14.01,2013-08-09 17:10:00,
2013-08-09 13:14:00,82.6,74.7,29.96,SW,228,3.0,5.0,77,0.00,,---,0.00,993.00,VWS V14.01,2013-08-09 17:14:00,
2013-08-09 13:20:00,82.3,74.0,29.95,West,262,0.0,4.0,76,0.00,,---,0.00,251.00,VWS V14.01,2013-08-09 17:20:00,
2013-08-09 13:25:00,81.9,74.0,29.95,WSW,244,1.0,6.0,77,0.00,,---,0.00,204.00,VWS V14.01,2013-08-09 17:25:00,
2013-08-09 13:30:00,82.1,75.3,29.95,SW,229,0.0,8.0,80,0.00,,---,0.00,893.00,VWS V14.01,2013-08-09 17:30:00,
2013-08-09 13:35:00,82.5,74.6,29.95,SW,236,0.0,8.0,77,0.00,,---,0.00,925.00,VWS V14.01,2013-08-09 17:35:00,
2013-08-09 13:40:00,82.8,74.5,29.95,SW,235,5.0,7.0,76,0.00,,---,0.00,954.00,VWS V14.01,2013-08-09 17:40:00,
2013-08-09 13:45:00,83.1,74.8,29.94,WSW,258,4.0,7.0,76,0.00,,---,0.00,953.00,VWS V14.01,2013-08-09 17:45:00,
2013-08-09 13:50:00,83.8,75.0,29.94,SSE,150,2.0,7.0,75,0.00,,---,0.00,983.00,VWS V14.01,2013-08-09 17:50:00,
2013-08-09 13:51:00,83.5,75.1,29.95,SW,222,5.0,5.0,76,0.00,,---,0.00,962.00,VWS V14.01,2013-08-09 17:51:00,
2013-08-09 13:56:00,83.8,75.4,29.95,SW,230,3.0,7.0,76,0.00,,---,0.00,962.00,VWS V14.01,2013-08-09 17:56:00,
2013-08-09 14:00:00,84.2,75.8,29.94,WSW,246,1.0,7.0,76,0.00,,---,0.00,1030.00,VWS V14.01,2013-08-09 18:00:00,
2013-08-09 14:01:00,83.8,75.0,29.94,West,269,0.0,6.0,75,0.00,,---,0.00,742.00,VWS V14.01,2013-08-09 18:01:00,
2013-08-09 14:06:00,84.0,76.0,29.94,West,263,0.0,7.0,77,0.00,,---,0.00,1062.00,VWS V14.01,2013-08-09 18:06:00,
2013-08-09 14:10:00,84.7,75.5,29.94,West,269,0.0,9.0,74,0.00,,---,0.00,979.00,VWS V14.01,2013-08-09 18:10:00,
2013-08-09 14:11:00,84.4,75.6,29.94,West,261,1.0,7.0,75,0.00,,---,0.00,998.00,VWS V14.01,2013-08-09 18:11:00,
2013-08-09 14:16:00,84.6,75.8,29.94,WSW,246,5.0,7.0,75,0.00,,---,0.00,937.00,VWS V14.01,2013-08-09 18:16:00,
2013-08-09 14:20:00,85.1,75.5,29.93,WSW,250,1.0,10.0,73,0.00,,---,0.00,984.00,VWS V14.01,2013-08-09 18:20:00,
2013-08-09 14:21:00,85.0,75.8,29.94,West,261,5.0,10.0,74,0.00,,---,0.00,956.00,VWS V14.01,2013-08-09 18:21:00,
2013-08-09 14:26:00,85.1,75.1,29.94,WSW,253,2.0,10.0,72,0.00,,---,0.00,332.00,VWS V14.01,2013-08-09 18:26:00,
2013-08-09 14:30:00,85.7,75.6,29.93,SSW,213,5.0,7.0,72,0.00,,---,0.00,1037.00,VWS V14.01,2013-08-09 18:30:00,
2013-08-09 14:31:00,85.2,75.6,29.93,WNW,292,2.0,5.0,73,0.00,,---,0.00,997.00,VWS V14.01,2013-08-09 18:31:00,
2013-08-09 14:37:00,85.7,75.6,29.93,West,260,0.0,6.0,72,0.00,,---,0.00,1020.00,VWS V14.01,2013-08-09 18:37:00,
2013-08-09 14:40:00,85.7,75.6,29.93,WSW,249,0.0,6.0,72,0.00,,---,0.00,926.00,VWS V14.01,2013-08-09 18:40:00,
2013-08-09 14:42:00,85.7,75.6,29.93,WNW,294,0.0,6.0,72,0.00,,---,0.00,1037.00,VWS V14.01,2013-08-09 18:42:00,
2013-08-09 14:47:00,85.7,76.5,29.93,WSW,244,1.0,6.0,74,0.00,,---,0.00,969.00,VWS V14.01,2013-08-09 18:47:00,
2013-08-09 14:50:00,85.7,74.8,29.92,WNW,301,3.0,8.0,70,0.00,,---,0.00,216.00,VWS V14.01,2013-08-09 18:50:00,
2013-08-09 14:52:00,86.0,75.9,29.92,WNW,292,0.0,5.0,72,0.00,,---,0.00,925.00,VWS V14.01,2013-08-09 18:52:00,
2013-08-09 14:57:00,85.9,75.0,29.92,West,259,1.0,8.0,70,0.00,,---,0.00,216.00,VWS V14.01,2013-08-09 18:57:00,
2013-08-09 15:00:00,85.3,74.4,29.92,WNW,301,4.0,8.0,70,0.00,,---,0.00,904.00,VWS V14.01,2013-08-09 19:00:00,
2013-08-09 15:02:00,85.3,74.8,29.92,West,260,1.0,8.0,71,0.00,,---,0.00,694.00,VWS V14.01,2013-08-09 19:02:00,
2013-08-09 15:07:00,85.2,74.3,29.92,SW,225,2.0,8.0,70,0.00,,---,0.00,824.00,VWS V14.01,2013-08-09 19:07:00,
2013-08-09 15:10:00,85.7,75.6,29.92,NW,321,4.0,6.0,72,0.00,,---,0.00,269.00,VWS V14.01,2013-08-09 19:10:00,
2013-08-09 15:12:00,85.4,74.5,29.92,SSW,202,0.0,6.0,70,0.00,,---,0.00,926.00,VWS V14.01,2013-08-09 19:12:00,
2013-08-09 15:17:00,85.7,75.2,29.92,SW,227,0.0,6.0,71,0.00,,---,0.00,940.00,VWS V14.01,2013-08-09 19:17:00,
2013-08-09 15:20:00,85.9,75.0,29.92,WSW,250,0.0,6.0,70,0.00,,---,0.00,483.00,VWS V14.01,2013-08-09 19:20:00,
2013-08-09 15:23:00,85.6,75.1,29.92,West,279,0.0,5.0,71,0.00,,---,0.00,933.00,VWS V14.01,2013-08-09 19:23:00,
2013-08-09 15:28:00,85.9,75.0,29.92,WNW,289,3.0,6.0,70,0.00,,---,0.00,483.00,VWS V14.01,2013-08-09 19:28:00,
2013-08-09 15:30:00,85.9,75.4,29.92,West,267,2.0,6.0,71,0.00,,---,0.00,795.00,VWS V14.01,2013-08-09 19:30:00,
2013-08-09 15:33:00,85.7,74.4,29.92,WSW,246,0.0,5.0,69,0.00,,---,0.00,339.00,VWS V14.01,2013-08-09 19:33:00,
2013-08-09 15:38:00,85.9,75.4,29.92,West,267,1.0,6.0,71,0.00,,---,0.00,795.00,VWS V14.01,2013-08-09 19:38:00,
2013-08-09 15:40:00,86.4,74.6,29.91,SW,219,2.0,6.0,68,0.00,,---,0.00,905.00,VWS V14.01,2013-08-09 19:40:00,
2013-08-09 15:43:00,86.0,76.3,29.91,West,268,5.0,5.0,73,0.00,,---,0.00,649.00,VWS V14.01,2013-08-09 19:43:00,
2013-08-09 15:48:00,86.4,74.6,29.91,SSW,211,0.0,6.0,68,0.00,,---,0.00,905.00,VWS V14.01,2013-08-09 19:48:00,
2013-08-09 15:50:00,86.9,76.8,29.91,WSW,250,0.0,8.0,72,0.00,,---,0.00,893.00,VWS V14.01,2013-08-09 19:50:00,
2013-08-09 15:53:00,86.5,75.1,29.91,South,186,1.0,8.0,69,0.00,,---,0.00,896.00,VWS V14.01,2013-08-09 19:53:00,
2013-08-09 15:58:00,86.9,76.8,29.91,WSW,250,0.0,8.0,72,0.00,,---,0.00,893.00,VWS V14.01,2013-08-09 19:58:00,
2013-08-09 16:00:00,87.0,75.2,29.90,West,267,2.0,5.0,68,0.00,,---,0.00,181.00,VWS V14.01,2013-08-09 20:00:00,
2013-08-09 16:03:00,87.3,75.9,29.91,SW,235,2.0,4.0,69,0.00,,---,0.00,338.00,VWS V14.01,2013-08-09 20:03:00,
2013-08-09 16:08:00,87.0,75.2,29.90,West,267,0.0,2.0,68,0.00,,---,0.00,199.00,VWS V14.01,2013-08-09 20:08:00,
2013-08-09 16:10:00,85.7,74.8,29.90,WSW,246,2.0,4.0,70,0.00,,---,0.00,258.00,VWS V14.01,2013-08-09 20:10:00,
2013-08-09 16:13:00,86.1,74.8,29.90,WSW,238,0.0,4.0,69,0.00,,---,0.00,258.00,VWS V14.01,2013-08-09 20:13:00,
2013-08-09 16:19:00,85.7,74.8,29.90,WSW,246,1.0,2.0,70,0.00,,---,0.00,830.00,VWS V14.01,2013-08-09 20:19:00,
2013-08-09 16:20:00,86.1,75.2,29.90,West,262,0.0,9.0,70,0.00,,---,0.00,260.00,VWS V14.01,2013-08-09 20:20:00,
2013-08-09 16:24:00,86.0,75.1,29.90,SW,223,4.0,9.0,70,0.00,,---,0.00,826.00,VWS V14.01,2013-08-09 20:24:00,
2013-08-09 16:29:00,86.0,75.5,29.90,WNW,290,3.0,3.0,71,0.00,,---,0.00,250.00,VWS V14.01,2013-08-09 20:29:00,
2013-08-09 16:30:00,85.3,74.4,29.90,WNW,294,0.0,4.0,70,0.00,,---,0.00,192.00,VWS V14.01,2013-08-09 20:30:00,
2013-08-09 16:34:00,85.7,75.2,29.90,West,273,2.0,4.0,71,0.00,,---,0.00,218.00,VWS V14.01,2013-08-09 20:34:00,
2013-08-09 16:39:00,85.2,75.2,29.90,WNW,294,0.0,0.0,72,0.00,,---,0.00,171.00,VWS V14.01,2013-08-09 20:39:00,
2013-08-09 16:40:00,84.7,75.1,29.90,WSW,246,3.0,3.0,73,0.00,,---,0.00,367.00,VWS V14.01,2013-08-09 20:40:00,
2013-08-09 16:44:00,84.8,74.8,29.91,West,267,0.0,2.0,72,0.00,,---,0.00,237.00,VWS V14.01,2013-08-09 20:44:00,
2013-08-09 16:49:00,84.6,75.0,29.91,WSW,246,1.0,3.0,73,0.00,,---,0.00,394.00,VWS V14.01,2013-08-09 20:49:00,
2013-08-09 16:50:00,85.9,75.8,29.90,WSW,238,1.0,4.0,72,0.00,,---,0.00,673.00,VWS V14.01,2013-08-09 20:50:00,
2013-08-09 16:54:00,85.3,75.7,29.90,SW,231,0.0,4.0,73,0.00,,---,0.00,346.00,VWS V14.01,2013-08-09 20:54:00,
2013-08-09 17:00:00,86.1,75.6,29.90,West,270,1.0,3.0,71,0.00,,---,0.00,673.00,VWS V14.01,2013-08-09 21:00:00,
2013-08-09 17:05:00,86.6,76.9,29.90,WSW,254,0.0,3.0,73,0.00,,---,0.00,724.00,VWS V14.01,2013-08-09 21:05:00,
2013-08-09 17:10:00,87.0,76.0,29.90,SW,228,4.0,6.0,70,0.00,,---,0.00,376.00,VWS V14.01,2013-08-09 21:10:00,
2013-08-09 17:15:00,87.0,76.5,29.90,SW,221,0.0,6.0,71,0.00,,---,0.00,352.00,VWS V14.01,2013-08-09 21:15:00,
2013-08-09 17:20:00,87.2,76.7,29.90,SW,236,0.0,2.0,71,0.00,,---,0.00,659.00,VWS V14.01,2013-08-09 21:20:00,
2013-08-09 17:26:00,87.5,75.2,29.90,West,265,2.0,6.0,67,0.00,,---,0.00,601.00,VWS V14.01,2013-08-09 21:26:00,
2013-08-09 17:30:00,87.5,76.1,29.90,WSW,258,1.0,5.0,69,0.00,,---,0.00,533.00,VWS V14.01,2013-08-09 21:30:00,
2013-08-09 17:31:00,87.4,76.0,29.90,WSW,238,4.0,5.0,69,0.00,,---,0.00,580.00,VWS V14.01,2013-08-09 21:31:00,
2013-08-09 17:36:00,87.4,75.1,29.90,WSW,258,0.0,5.0,67,0.00,,---,0.00,540.00,VWS V14.01,2013-08-09 21:36:00,
2013-08-09 17:40:00,87.2,75.4,29.89,WNW,284,2.0,5.0,68,0.00,,---,0.00,517.00,VWS V14.01,2013-08-09 21:40:00,
2013-08-09 17:41:00,87.5,75.2,29.90,WNW,284,0.0,5.0,67,0.00,,---,0.00,120.00,VWS V14.01,2013-08-09 21:41:00,
2013-08-09 17:46:00,87.2,75.8,29.89,WNW,284,0.0,5.0,69,0.00,,---,0.00,439.00,VWS V14.01,2013-08-09 21:46:00,
2013-08-09 17:50:00,86.6,76.1,29.90,WSW,248,0.0,4.0,71,0.00,,---,0.00,501.00,VWS V14.01,2013-08-09 21:50:00,
2013-08-09 17:51:00,87.1,76.1,29.90,WNW,284,0.0,3.0,70,0.00,,---,0.00,162.00,VWS V14.01,2013-08-09 21:51:00,
2013-08-09 17:56:00,86.6,76.1,29.90,WSW,248,0.0,4.0,71,0.00,,---,0.00,501.00,VWS V14.01,2013-08-09 21:56:00,
2013-08-09 18:00:00,86.1,76.0,29.90,SSE,155,0.0,3.0,72,0.00,,---,0.00,176.00,VWS V14.01,2013-08-09 22:00:00,
2013-08-09 18:01:00,86.6,76.5,29.90,WSW,248,0.0,1.0,72,0.00,,---,0.00,123.00,VWS V14.01,2013-08-09 22:01:00,
2013-08-09 18:07:00,86.2,75.7,29.90,SSE,155,0.0,3.0,71,0.00,,---,0.00,306.00,VWS V14.01,2013-08-09 22:07:00,
2013-08-09 18:10:00,85.7,75.6,29.89,SSE,159,0.0,1.0,72,0.00,,---,0.00,469.00,VWS V14.01,2013-08-09 22:10:00,
2013-08-09 18:12:00,85.9,76.2,29.89,SSE,155,0.0,0.0,73,0.00,,---,0.00,171.00,VWS V14.01,2013-08-09 22:12:00,
2013-08-09 18:17:00,85.7,75.6,29.89,SSE,159,0.0,1.0,72,0.00,,---,0.00,200.00,VWS V14.01,2013-08-09 22:17:00,
2013-08-09 18:20:00,86.4,76.3,29.89,SSE,161,0.0,1.0,72,0.00,,---,0.00,420.00,VWS V14.01,2013-08-09 22:20:00,
2013-08-09 18:22:00,85.8,75.7,29.89,SSE,161,0.0,1.0,72,0.00,,---,0.00,462.00,VWS V14.01,2013-08-09 22:22:00,
2013-08-09 18:27:00,86.3,75.8,29.89,SSE,161,0.0,1.0,71,0.00,,---,0.00,434.00,VWS V14.01,2013-08-09 22:27:00,
2013-08-09 18:30:00,86.8,75.8,29.89,WSW,251,1.0,2.0,70,0.00,,---,0.00,111.00,VWS V14.01,2013-08-09 22:30:00,
2013-08-09 18:32:00,86.8,76.7,29.89,SSE,161,0.0,1.0,72,0.00,,---,0.00,142.00,VWS V14.01,2013-08-09 22:32:00,
2013-08-09 18:37:00,86.9,75.5,29.89,SSE,162,0.0,1.0,69,0.00,,---,0.00,113.00,VWS V14.01,2013-08-09 22:37:00,
2013-08-09 18:40:00,85.5,75.0,29.89,West,260,0.0,2.0,71,0.00,,---,0.00,86.00,VWS V14.01,2013-08-09 22:40:00,
2013-08-09 18:42:00,86.3,75.8,29.88,West,260,0.0,2.0,71,0.00,,---,0.00,113.00,VWS V14.01,2013-08-09 22:42:00,
2013-08-09 18:48:00,85.6,75.1,29.89,West,259,0.0,2.0,71,0.00,,---,0.00,102.00,VWS V14.01,2013-08-09 22:48:00,
2013-08-09 18:50:00,84.7,75.1,29.90,South,188,0.0,2.0,73,0.00,,---,0.00,236.00,VWS V14.01,2013-08-09 22:50:00,
2013-08-09 18:53:00,85.0,75.4,29.89,West,259,0.0,0.0,73,0.00,,---,0.00,149.00,VWS V14.01,2013-08-09 22:53:00,
2013-08-09 18:58:00,84.7,75.5,29.90,South,188,1.0,2.0,74,0.00,,---,0.00,236.00,VWS V14.01,2013-08-09 22:58:00,
2013-08-09 19:00:00,84.8,75.6,29.90,WNW,296,0.0,1.0,74,0.00,,---,0.00,227.00,VWS V14.01,2013-08-09 23:00:00,
2013-08-09 19:03:00,84.7,75.5,29.90,South,188,0.0,1.0,74,0.00,,---,0.00,125.00,VWS V14.01,2013-08-09 23:03:00,
2013-08-09 19:08:00,84.8,75.6,29.90,WNW,296,0.0,1.0,74,0.00,,---,0.00,227.00,VWS V14.01,2013-08-09 23:08:00,
2013-08-09 19:10:00,85.1,75.5,29.90,West,277,0.0,3.0,73,0.00,,---,0.00,171.00,VWS V14.01,2013-08-09 23:10:00,
2013-08-09 19:13:00,84.8,75.6,29.90,West,277,0.0,3.0,74,0.00,,---,0.00,216.00,VWS V14.01,2013-08-09 23:13:00,
2013-08-09 19:18:00,85.1,75.5,29.90,West,277,0.0,1.0,73,0.00,,---,0.00,171.00,VWS V14.01,2013-08-09 23:18:00,
2013-08-09 19:20:00,84.7,75.1,29.90,WSW,250,0.0,2.0,73,0.00,,---,0.00,120.00,VWS V14.01,2013-08-09 23:20:00,
2013-08-09 19:23:00,85.1,75.5,29.90,WSW,250,0.0,2.0,73,0.00,,---,0.00,98.00,VWS V14.01,2013-08-09 23:23:00,
2013-08-09 19:28:00,84.7,75.1,29.90,WSW,250,0.0,0.0,73,0.00,,---,0.00,114.00,VWS V14.01,2013-08-09 23:28:00,
2013-08-09 19:30:00,83.8,74.2,29.91,SSW,198,0.0,2.0,73,0.00,,---,0.00,77.00,VWS V14.01,2013-08-09 23:30:00,
2013-08-09 19:34:00,84.1,74.5,29.90,SSW,200,0.0,2.0,73,0.00,,---,0.00,107.00,VWS V14.01,2013-08-09 23:34:00,
2013-08-09 19:39:00,83.8,74.6,29.91,SSW,198,0.0,1.0,74,0.00,,---,0.00,76.00,VWS V14.01,2013-08-09 23:39:00,
2013-08-09 19:40:00,82.9,74.2,29.91,SSW,198,0.0,1.0,75,0.00,,---,0.00,40.00,VWS V14.01,2013-08-09 23:40:00,
2013-08-09 19:44:00,83.3,74.2,29.91,SSW,198,0.0,1.0,74,0.00,,---,0.00,51.00,VWS V14.01,2013-08-09 23:44:00,
2013-08-09 19:49:00,82.9,74.2,29.91,SSW,198,0.0,0.0,75,0.00,,---,0.00,39.00,VWS V14.01,2013-08-09 23:49:00,
2013-08-09 19:50:00,81.9,74.0,29.91,SSW,198,0.0,1.0,77,0.00,,---,0.00,18.00,VWS V14.01,2013-08-09 23:50:00,
2013-08-09 19:54:00,82.4,74.1,29.91,SSW,198,0.0,0.0,76,0.00,,---,0.00,25.00,VWS V14.01,2013-08-09 23:54:00,
2013-08-09 19:59:00,81.6,73.7,29.91,SSW,198,0.0,0.0,77,0.00,,---,0.00,16.00,VWS V14.01,2013-08-09 23:59:00,
2013-08-09 20:00:00,80.5,73.0,29.92,WSW,237,0.0,3.0,78,0.00,,---,0.00,12.00,VWS V14.01,2013-08-10 00:00:00,
2013-08-09 20:04:00,81.0,73.1,29.92,SSW,198,0.0,0.0,77,0.00,,---,0.00,12.00,VWS V14.01,2013-08-10 00:04:00,
2013-08-09 20:09:00,80.3,72.8,29.92,SSW,213,0.0,1.0,78,0.00,,---,0.00,11.00,VWS V14.01,2013-08-10 00:09:00,
2013-08-09 20:10:00,79.5,72.8,29.92,SSW,213,0.0,1.0,80,0.00,,---,0.00,7.00,VWS V14.01,2013-08-10 00:10:00,
2013-08-09 20:14:00,79.8,72.7,29.92,SSW,213,0.0,1.0,79,0.00,,---,0.00,9.00,VWS V14.01,2013-08-10 00:14:00,
2013-08-09 20:20:00,79.4,72.7,29.92,SSW,213,0.0,0.0,80,0.00,,---,0.00,5.00,VWS V14.01,2013-08-10 00:20:00,
2013-08-09 20:25:00,78.8,72.5,29.92,WSW,238,0.0,3.0,81,0.00,,---,0.00,0.00,VWS V14.01,2013-08-10 00:25:00,
2013-08-09 20:30:00,78.4,72.4,29.92,SSW,210,0.0,0.0,82,0.00,,---,0.00,0.00,VWS V14.01,2013-08-10 00:30:00,
2013-08-09 20:35:00,78.0,72.4,29.93,SSW,208,0.0,1.0,83,0.00,,---,0.00,0.00,VWS V14.01,2013-08-10 00:35:00,
2013-08-09 20:40:00,77.7,72.1,29.92,SSW,207,0.0,1.0,83,0.00,,---,0.00,0.00,VWS V14.01,2013-08-10 00:40:00,
2013-08-09 20:45:00,77.4,72.2,29.92,SSW,202,0.0,1.0,84,0.00,,---,0.00,0.00,VWS V14.01,2013-08-10 00:45:00,
2013-08-09 20:50:00,77.1,71.9,29.92,SSW,200,0.0,0.0,84,0.00,,---,0.00,0.00,VWS V14.01,2013-08-10 00:50:00,
2013-08-09 20:55:00,76.8,71.9,29.92,SSW,194,0.0,1.0,85,0.00,,---,0.00,0.00,VWS V14.01,2013-08-10 00:55:00,
2013-08-09 21:00:00,76.5,71.7,29.92,SSW,194,0.0,1.0,85,0.00,,---,0.00,0.00,VWS V14.01,2013-08-10 01:00:00,
2013-08-09 21:06:00,76.3,71.8,29.93,SSW,194,0.0,1.0,86,0.00,,---,0.00,0.00,VWS V14.01,2013-08-10 01:06:00,
2013-08-09 21:10:00,75.8,71.7,29.94,SSW,194,0.0,1.0,87,0.00,,---,0.00,0.00,VWS V14.01,2013-08-10 01:10:00,
2013-08-09 21:11:00,76.1,71.6,29.93,SSW,194,0.0,1.0,86,0.00,,---,0.00,0.00,VWS V14.01,2013-08-10 01:11:00,
2013-08-09 21:16:00,75.9,71.8,29.94,SSW,194,0.0,1.0,87,0.00,,---,0.00,0.00,VWS V14.01,2013-08-10 01:16:00,
2013-08-09 21:20:00,75.5,71.7,29.94,SSW,194,0.0,1.0,88,0.00,,---,0.00,0.00,VWS V14.01,2013-08-10 01:20:00,
2013-08-09 21:21:00,75.7,71.6,29.94,SSW,194,0.0,0.0,87,0.00,,---,0.00,0.00,VWS V14.01,2013-08-10 01:21:00,
2013-08-09 21:26:00,75.5,71.7,29.94,SSW,194,0.0,1.0,88,0.00,,---,0.00,0.00,VWS V14.01,2013-08-10 01:26:00,
2013-08-09 21:30:00,75.4,71.6,29.95,West,270,0.0,1.0,88,0.00,,---,0.00,0.00,VWS V14.01,2013-08-10 01:30:00,
2013-08-09 21:31:00,75.4,71.6,29.95,West,270,0.0,1.0,88,0.00,,---,0.00,0.00,VWS V14.01,2013-08-10 01:31:00,
2013-08-09 21:36:00,75.4,71.6,29.95,West,270,0.0,1.0,88,0.00,,---,0.00,0.00,VWS V14.01,2013-08-10 01:36:00,
2013-08-09 21:40:00,75.4,71.9,29.95,West,269,0.0,1.0,89,0.00,,---,0.00,0.00,VWS V14.01,2013-08-10 01:40:00,
2013-08-09 21:41:00,75.4,71.6,29.95,West,269,0.0,1.0,88,0.00,,---,0.00,0.00,VWS V14.01,2013-08-10 01:41:00,
2013-08-09 21:46:00,75.4,71.9,29.95,West,269,0.0,1.0,89,0.00,,---,0.00,0.00,VWS V14.01,2013-08-10 01:46:00,
2013-08-09 21:50:00,75.3,71.8,29.95,West,269,0.0,0.0,89,0.00,,---,0.00,0.00,VWS V14.01,2013-08-10 01:50:00,
2013-08-09 21:52:00,75.4,71.9,29.95,West,269,0.0,0.0,89,0.00,,---,0.00,0.00,VWS V14.01,2013-08-10 01:52:00,
2013-08-09 21:57:00,75.3,71.8,29.95,West,269,0.0,0.0,89,0.00,,---,0.00,0.00,VWS V14.01,2013-08-10 01:57:00,
2013-08-09 22:00:00,75.1,72.0,29.96,West,269,0.0,1.0,90,0.00,,---,0.00,0.00,VWS V14.01,2013-08-10 02:00:00,
2013-08-09 22:02:00,75.2,71.7,29.96,West,269,0.0,0.0,89,0.00,,---,0.00,0.00,VWS V14.01,2013-08-10 02:02:00,
2013-08-09 22:07:00,75.1,72.0,29.96,West,269,0.0,1.0,90,0.00,,---,0.00,0.00,VWS V14.01,2013-08-10 02:07:00,
2013-08-09 22:10:00,75.0,71.9,29.96,WNW,286,0.0,3.0,90,0.00,,---,0.00,0.00,VWS V14.01,2013-08-10 02:10:00,
2013-08-09 22:12:00,75.0,71.9,29.96,West,269,0.0,1.0,90,0.00,,---,0.00,0.00,VWS V14.01,2013-08-10 02:12:00,
2013-08-09 22:17:00,75.0,71.9,29.96,WNW,286,0.0,3.0,90,0.00,,---,0.00,0.00,VWS V14.01,2013-08-10 02:17:00,
2013-08-09 22:20:00,75.1,72.0,29.96,WNW,286,0.0,1.0,90,0.00,,---,0.00,0.00,VWS V14.01,2013-08-10 02:20:00,
2013-08-09 22:22:00,75.1,72.0,29.96,WNW,286,0.0,1.0,90,0.00,,---,0.00,0.00,VWS V14.01,2013-08-10 02:22:00,
2013-08-09 22:27:00,75.1,72.0,29.96,WNW,286,0.0,1.0,90,0.00,,---,0.00,0.00,VWS V14.01,2013-08-10 02:27:00,
2013-08-09 22:30:00,75.1,72.0,29.96,WNW,286,0.0,1.0,90,0.00,,---,0.00,0.00,VWS V14.01,2013-08-10 02:30:00,
2013-08-09 22:32:00,75.1,72.0,29.96,WNW,286,0.0,0.0,90,0.00,,---,0.00,0.00,VWS V14.01,2013-08-10 02:32:00,
2013-08-09 22:37:00,75.1,72.0,29.96,WNW,286,0.0,1.0,90,0.00,,---,0.00,0.00,VWS V14.01,2013-08-10 02:37:00,
2013-08-09 22:40:00,75.0,71.9,29.97,NNW,347,0.0,1.0,90,0.00,,---,0.00,0.00,VWS V14.01,2013-08-10 02:40:00,
2013-08-09 22:43:00,75.1,72.0,29.97,SSW,211,0.0,1.0,90,0.00,,---,0.00,0.00,VWS V14.01,2013-08-10 02:43:00,
2013-08-09 22:48:00,75.0,71.9,29.97,NNW,347,0.0,1.0,90,0.00,,---,0.00,0.00,VWS V14.01,2013-08-10 02:48:00,
2013-08-09 22:50:00,74.8,71.7,29.97,WSW,241,0.0,1.0,90,0.00,,---,0.00,0.00,VWS V14.01,2013-08-10 02:50:00,
2013-08-09 22:53:00,74.9,71.8,29.97,NNW,331,0.0,1.0,90,0.00,,---,0.00,0.00,VWS V14.01,2013-08-10 02:53:00,
2013-08-09 22:58:00,74.8,71.7,29.97,WSW,241,0.0,1.0,90,0.00,,---,0.00,0.00,VWS V14.01,2013-08-10 02:58:00,
2013-08-09 23:00:00,74.6,71.8,29.97,WSW,241,0.0,2.0,91,0.00,,---,0.00,0.00,VWS V14.01,2013-08-10 03:00:00,
2013-08-09 23:03:00,74.6,71.8,29.97,WSW,241,0.0,1.0,91,0.00,,---,0.00,0.00,VWS V14.01,2013-08-10 03:03:00,
2013-08-09 23:08:00,74.6,71.8,29.97,WSW,241,0.0,2.0,91,0.00,,---,0.00,0.00,VWS V14.01,2013-08-10 03:08:00,
2013-08-09 23:10:00,74.3,71.5,29.96,WSW,241,0.0,1.0,91,0.00,,---,0.00,0.00,VWS V14.01,2013-08-10 03:10:00,
2013-08-09 23:13:00,74.4,71.6,29.97,WSW,241,0.0,0.0,91,0.00,,---,0.00,0.00,VWS V14.01,2013-08-10 03:13:00,
2013-08-09 23:18:00,74.3,71.5,29.97,WSW,241,0.0,0.0,91,0.00,,---,0.00,0.00,VWS V14.01,2013-08-10 03:18:00,
2013-08-09 23:20:00,74.1,71.6,29.97,WSW,241,0.0,1.0,92,0.00,,---,0.00,0.00,VWS V14.01,2013-08-10 03:20:00,
2013-08-09 23:23:00,74.2,71.4,29.97,WSW,241,0.0,1.0,91,0.00,,---,0.00,0.00,VWS V14.01,2013-08-10 03:23:00,
2013-08-09 23:29:00,74.1,71.6,29.97,WSW,241,0.0,0.0,92,0.00,,---,0.00,0.00,VWS V14.01,2013-08-10 03:29:00,
2013-08-09 23:30:00,73.9,71.4,29.97,WSW,242,0.0,3.0,92,0.00,,---,0.00,0.00,VWS V14.01,2013-08-10 03:30:00,
2013-08-09 23:34:00,74.0,71.5,29.97,WSW,241,0.0,3.0,92,0.00,,---,0.00,0.00,VWS V14.01,2013-08-10 03:34:00,
2013-08-09 23:39:00,73.9,71.4,29.97,WSW,242,0.0,0.0,92,0.00,,---,0.00,0.00,VWS V14.01,2013-08-10 03:39:00,
2013-08-09 23:40:00,73.9,71.4,29.97,WSW,242,0.0,1.0,92,0.00,,---,0.00,0.00,VWS V14.01,2013-08-10 03:40:00,
2013-08-09 23:44:00,74.0,71.5,29.97,WSW,242,0.0,1.0,92,0.00,,---,0.00,0.00,VWS V14.01,2013-08-10 03:44:00,
2013-08-09 23:49:00,73.9,71.4,29.97,WSW,242,0.0,1.0,92,0.00,,---,0.00,0.00,VWS V14.01,2013-08-10 03:49:00,
2013-08-09 23:50:00,73.8,71.3,29.98,WSW,242,0.0,1.0,92,0.00,,---,0.00,0.00,VWS V14.01,2013-08-10 03:50:00,
2013-08-09 23:54:00,73.9,71.4,29.97,WSW,242,0.0,1.0,92,0.00,,---,0.00,0.00,VWS V14.01,2013-08-10 03:54:00,
2013-08-09 23:59:00,73.8,71.3,29.97,WSW,242,0.0,0.0,92,0.00,,---,0.00,0.00,VWS V14.01,2013-08-10 03:59:00,